Вернуться в каталог

TRANSIT 18 DEB

АктивенPO
NORAD 35416·DEBRIS·🇺🇸 United States

Запущен Mar 2, 1968 с Vandenberg Space Force Base

Loading…

Ближайшие Пролёты (ближайшие 24 часа)

TLE

СвежийSource: Space-Track

Эпоха: Sep 14, 2026, 13:15 UTC

1 35416U 68012F   26257.55219773  .00000583  00000-0  77018-3 0  9999
2 35416  90.0186 273.5980 0063468 347.7661 180.2026 13.59153867866670

Отслеживайте TRANSIT 18 DEB в реальном времени с AllMySat

Download on the App Store